Погода в Гаровке-2

Россия / Хабаровский край     48°24′36″N   135°13′09″E
темп.,
°C
ветер,
м/с
пор.,
м/с
влажн.,
%
обл.,
%
осадки,
мм/ч
давл.,
гПа
погр.,
м
17 апреля, сб
сб1701:00+5юв345390 0.0 101063
04:00+4вюв3362100 0.0 101033
07:00+3вюв3794100 1.9 1010328
10:00+3юв379498 4.3 1011362
13:00+10зюз145575 0.3 1010907
16:00+12с344993 0.8 10101127
19:00+10с33615 0.3 1011163
22:00+5св35853 0.3 101294
18 апреля, вс
вс1801:00+4св22915 0.0 101219
04:00+2ссв33932 0.0 101157
07:00+2ссв37902 0.0 1012163
10:00+8ссв46655 0.0 1011451
13:00+12ссв57465 0.0 10091099
16:00+14ссв67357 0.0 10061674
19:00+12ссв5104533 0.0 1006537
22:00+8ссв4135994 0.0 1006343
19 апреля, пн
пн1901:00+6с51270100 0.0 1005333
04:00+5с61479100 0.0 1004373
07:00+5с51578100 0.0 1004536
10:00+9ссв596299 0.0 1003836
13:00+12с584531 0.0 10011800
16:00+14св463896 0.0 9991700
19:00+11в555489 0.1 1000698
22:00+6юв36712 0.1 1001188
20 апреля, вт
вт2001:00+6ююз3673100 0.0 1001309
04:00+3зсз1016540 0.0 10021013
07:00−1з1320390 0.0 10041204
10:00+2зсз1319345 0.0 10041866
13:00+5зсз10112998 0.0 10061551
16:00+9зсз67242 0.0 10082081
19:00+9зсз711320 0.0 10101171
22:00+6зсз8153241 0.0 1012729
21 апреля, ср
ср2101:00+5зсз715325 0.0 1014544
04:00+5з7173152 0.0 1015422
07:00+4зюз51240100 0.0 1016208
10:00+10зюз5934100 0.0 1016537
13:00+15зюз6926100 0.0 10151419
16:00+17з6828100 0.0 10141457
19:00+15зсз123751 0.0 101315
22:00+11св014911 0.0 101410